Probability
26 32 37 38 40 43 44 42 37 37 40 40 35 31 29 28 26 22 19 16 12 10 11 12 12 10 9 9 7 7 8 9 7 3 1 1 1 0 1 2 3 2 2
27 30 35 38 40 42 41 38 35 35 38 37 33 31 31 30 27 23 19 15 11 10 10 12 11 9 7 7 7 7 7 7 7 4 2 1 0 0 0 2 3 3 2
26 29 34 37 38 39 37 33 32 33 34 34 31 30 32 32 28 23 19 15 12 10 10 11 10 8 7 6 6 7 7 6 6 6 4 2 1 0 0 1 3 4 3
23 27 32 34 34 35 34 32 30 31 32 31 29 29 31 32 28 22 19 16 13 11 10 11 10 9 9 8 7 7 7 6 6 6 5 3 2 1 0 0 1 3 4
18 23 30 32 31 31 32 31 30 31 32 31 30 30 30 30 26 21 19 17 14 11 10 11 10 10 10 9 8 7 7 6 5 5 4 3 3 2 1 0 0 1 2
15 21 27 30 29 27 27 29 31 33 33 32 31 30 28 27 25 21 17 16 15 12 10 10 10 10 10 9 9 8 7 6 5 5 4 3 3 3 2 1 0 0 1
14 19 23 25 27 25 24 27 32 34 34 33 30 28 26 24 22 18 15 14 13 13 11 9 8 8 8 8 9 9 8 7 6 5 4 3 3 3 2 1 0 0 0
12 15 19 24 28 29 28 30 32 34 33 30 27 26 23 21 19 15 13 11 11 11 10 9 7 7 6 7 8 9 8 8 7 6 4 3 3 3 3 1 0 0 0
13 15 20 25 29 32 35 35 34 33 31 28 26 24 21 18 16 14 11 10 9 9 8 7 7 7 6 7 8 8 8 8 7 6 5 4 4 5 4 2 0 0 0
16 17 20 25 29 34 38 38 35 32 30 27 25 23 19 15 12 12 12 10 9 8 8 7 6 6 7 8 8 8 8 7 6 5 5 5 5 7 7 4 1 0 0
16 16 19 24 29 32 35 34 31 30 28 26 24 23 18 12 10 11 12 10 8 7 7 6 6 5 6 7 7 7 7 6 5 5 5 6 7 9 9 6 2 0 0
13 15 17 22 28 30 31 30 27 26 26 24 23 22 17 12 9 9 10 8 7 6 6 5 5 4 4 6 6 6 6 6 6 6 6 6 7 9 9 7 3 1 0
14 15 17 22 26 30 31 28 26 25 24 22 21 21 18 14 10 7 6 6 6 5 4 4 4 3 4 5 6 6 6 6 6 6 6 6 7 8 7 5 3 1 1
14 16 20 24 28 31 32 29 28 27 25 22 21 21 18 14 10 6 4 4 4 4 4 4 4 3 3 4 4 5 6 6 5 5 4 5 6 6 4 2 1 1 0
12 14 20 27 31 33 34 33 33 33 30 24 20 19 17 13 9 6 3 3 3 4 4 5 5 4 3 2 3 3 4 3 3 2 1 2 3 3 2 0 0 0 0
13 15 22 30 34 35 37 38 38 38 35 27 20 19 16 13 9 6 4 4 4 5 6 6 6 4 1 1 1 1 2 1 1 0 0 0 1 1 0 0 0 0 0
18 20 26 32 36 38 40 41 39 38 34 27 22 20 18 13 9 6 5 6 6 7 7 7 5 3 1 0 0 0 0 0 0 0 0 0 0 0 0 0 0 0 0
22 24 29 33 36 38 41 41 39 36 31 25 22 22 19 14 10 8 9 10 10 10 9 8 6 4 1 0 0 0 0 0 0 0 0 0 0 0 0 0 0 0 0
23 27 32 35 36 37 39 39 37 35 30 24 22 22 20 17 15 13 14 15 14 13 11 10 7 5 3 1 0 0 0 0 0 1 1 0 0 0 0 0 0 0 0
25 29 33 37 37 36 36 36 34 31 27 24 23 21 19 18 19 19 20 20 17 13 11 9 7 5 4 2 0 0 0 0 1 2 2 1 0 0 0 0 0 0 0
24 26 29 34 36 34 32 30 28 24 21 22 22 20 18 17 18 20 22 21 17 11 9 9 7 6 4 2 1 0 0 1 1 2 2 1 0 0 0 0 0 0 0
18 19 23 29 33 31 27 24 22 18 16 18 19 18 18 16 16 19 21 21 16 10 9 8 7 6 4 2 1 0 0 0 1 2 2 1 0 0 0 0 0 0 0
13 13 17 22 24 23 20 18 17 15 13 14 17 18 19 18 17 19 21 20 15 11 10 9 7 5 4 3 1 0 0 0 1 1 1 0 0 0 0 0 0 0 0
11 11 12 14 14 14 13 14 14 13 12 13 14 16 17 18 18 19 20 18 14 12 12 10 7 5 3 3 2 1 0 0 0 0 0 0 0 0 0 0 0 0 0
11 11 11 11 10 8 8 9 10 10 11 11 10 10 10 11 14 16 15 13 11 10 10 10 9 6 3 3 3 2 1 0 0 0 0 0 0 0 0 0 0 0 1
10 12 14 13 10 7 6 6 7 7 8 8 7 5 5 6 9 12 11 10 8 7 7 8 8 5 3 2 1 1 1 0 0 0 0 0 0 0 0 0 0 1 3
Wind_Speed
8 7 8 7 8 6 6 5 4 4 3 3 3 2 2 2 2 2 3 3 2 1 1 1 1 1 1 1 1 1 2 1 1 0 1 1 1 1 1 1 2 2 3
7 8 8 7 7 7 6 5 4 4 4 3 2 2 2 2 2 2 3 3 2 1 1 2 1 1 1 1 1 1 1 1 1 1 1 1 1 1 2 2 2 2 2
9 8 8 8 8 7 6 5 5 4 4 4 2 2 2 2 2 3 2 2 2 2 1 2 1 1 1 1 1 1 2 1 1 1 1 0 1 0 1 2 2 2 2
10 10 9 8 8 8 7 6 5 4 3 3 3 3 3 2 3 2 3 3 2 2 2 2 1 1 1 1 2 2 1 1 1 1 1 1 1 1 0 1 1 2 2
9 10 10 9 8 7 7 6 5 5 4 3 3 2 2 2 2 3 3 2 2 2 2 2 2 1 1 1 1 0 0 1 1 2 1 1 1 1 1 1 1 1 1
8 9 9 9 8 7 7 7 7 6 5 4 4 3 3 2 3 3 3 2 2 2 2 2 2 2 1 1 1 1 1 1 1 1 1 1 1 1 1 1 2 2 2
7 8 9 10 9 9 8 8 8 7 6 5 4 4 4 3 3 3 3 2 2 2 1 2 2 2 1 1 1 1 1 1 1 1 1 1 1 0 0 1 1 1 1
6 7 9 9 9 9 9 9 8 7 7 6 5 4 4 3 3 2 2 2 1 2 2 2 2 2 2 1 1 1 2 1 1 1 1 1 1 1 0 0 0 0 0
6 7 7 9 9 9 9 9 8 7 7 6 5 5 4 3 3 3 2 1 1 2 2 2 2 2 2 1 1 1 1 1 1 1 1 1 1 1 0 0 0 0 1
5 6 6 7 8 8 9 9 9 8 7 7 6 6 5 3 3 3 2 2 2 1 2 2 2 2 2 2 1 1 1 2 2 1 1 1 1 1 1 1 1 1 1
4 4 5 8 8 8 9 9 9 8 7 7 6 5 5 4 4 3 3 2 2 2 2 3 2 2 2 2 1 2 2 2 2 2 2 2 1 1 1 1 0 0 0
4 4 4 6 7 7 8 8 8 8 7 6 6 5 5 5 4 3 3 3 3 3 3 2 2 2 2 3 3 3 2 2 3 3 2 2 2 1 1 1 1 1 1
4 4 4 5 7 7 7 7 7 7 7 7 7 6 5 5 4 3 3 3 3 3 3 2 2 2 2 3 3 3 2 2 2 2 3 3 2 2 2 2 1 1 1
4 4 4 4 5 5 6 7 7 7 6 6 6 6 5 5 4 4 3 3 3 3 3 3 3 3 3 3 3 3 3 3 3 3 3 3 3 3 2 2 2 1 1
4 4 4 4 5 5 5 6 6 6 6 6 6 6 5 5 4 4 4 3 3 4 3 3 3 3 3 3 3 3 4 3 3 3 2 3 3 3 3 3 1 1 1
3 3 3 5 5 5 5 6 6 6 6 6 5 5 5 5 5 4 4 4 3 3 3 3 3 3 3 3 3 3 3 3 3 3 2 3 4 4 4 3 3 3 3
3 3 2 3 4 4 4 5 5 6 6 6 5 5 5 5 5 5 4 4 3 3 3 3 3 3 3 5 5 4 2 2 3 3 3 4 3 4 3 4 5 5 7
2 2 2 2 4 4 4 4 5 6 6 5 5 5 5 4 4 4 4 3 3 3 3 4 4 3 4 6 5 4 4 3 3 4 4 4 3 2 2 2 3 4 4
2 3 3 3 3 4 4 5 4 4 5 5 5 5 5 4 3 3 3 2 2 3 4 4 4 4 4 7 7 5 3 4 5 5 5 4 4 4 3 3 3 3 3
3 3 3 4 4 3 4 5 4 4 4 4 4 4 4 4 3 3 3 2 2 3 4 4 4 4 5 8 9 7 4 4 4 4 4 5 5 6 6 4 3 4 3
3 3 3 3 3 3 4 4 4 4 4 4 4 4 4 4 3 3 2 2 3 3 3 4 4 4 5 8 10 9 4 4 3 3 3 4 8 8 7 6 4 4 3
2 3 2 3 3 3 4 3 3 3 3 3 4 4 3 3 3 3 3 3 3 4 4 3 3 3 4 6 9 11 9 5 3 3 2 2 7 8 8 6 6 4 3
2 2 2 3 3 3 3 3 2 2 2 3 3 3 3 3 3 4 4 3 3 3 3 3 3 3 3 4 8 9 9 8 4 2 1 2 6 6 6 8 7 5 4
2 2 3 3 3 3 3 3 3 3 3 3 2 2 3 4 4 4 4 4 4 4 3 3 3 3 3 3 3 4 5 6 5 4 3 5 7 6 5 4 5 5 5
1 1 2 3 3 3 3 3 3 3 3 3 3 3 3 4 4 4 3 5 3 3 3 2 2 1 2 2 3 3 3 3 2 2 3 3 3 4 5 4 5 5 5
2 1 1 2 3 3 3 2 2 3 3 3 3 3 3 3 4 4 3 2 2 4 4 3 1 1 2 4 4 4 3 3 4 2 3 4 4 5 5 5 5 5 5
Wind_Direction
168 156 152 150 149 144 141 147 157 153 156 155 168 168 160 162 148 132 129 129 133 137 145 141 155 201 181 188 205 216 231 228 242 198 236 213 194 195 160 161 159 162 158
160 152 151 150 149 149 151 155 156 161 171 160 158 167 152 158 134 111 123 139 141 159 176 133 165 168 153 192 212 221 256 249 188 198 212 195 162 216 183 185 179 168 166
165 162 161 162 161 156 157 161 155 155 165 155 158 151 143 164 147 142 147 153 147 158 146 143 154 160 163 187 206 242 238 255 251 213 195 167 175 193 182 209 161 156 161
170 169 168 167 165 165 161 152 151 152 161 161 173 171 176 176 156 150 143 144 158 161 154 150 149 184 186 189 222 214 259 251 259 247 219 157 128 144 156 237 179 180 171
171 171 168 164 162 164 166 157 159 162 164 169 172 174 175 155 126 122 134 149 154 163 167 164 158 173 190 199 215 124 296 281 271 271 269 220 191 203 186 209 201 193 175
175 169 164 158 158 162 170 168 167 164 168 175 174 175 167 155 134 137 154 168 155 154 155 152 153 160 178 177 191 181 203 244 275 295 303 267 176 207 200 189 205 195 200
178 166 167 163 160 165 172 167 163 167 170 176 176 175 173 161 157 165 166 164 152 144 151 155 144 150 172 165 167 171 214 218 232 282 300 318 296 274 223 140 219 218 195
176 172 167 166 162 167 167 163 165 168 172 178 178 173 175 176 169 158 150 164 150 150 155 158 158 168 182 183 171 192 203 184 211 238 263 288 293 303 322 114 65 304 255
173 173 164 162 162 165 164 164 166 169 173 176 171 178 182 170 158 165 178 171 153 163 149 153 164 171 167 176 174 194 202 180 202 233 237 270 269 288 284 202 180 179 264
170 168 164 162 162 159 157 161 166 170 175 175 179 175 169 166 169 179 163 151 159 157 165 169 166 165 164 170 173 209 199 187 195 216 231 262 299 309 271 245 220 223 246
161 164 165 162 157 156 160 164 170 171 173 175 174 163 168 173 183 183 168 165 168 176 180 176 171 172 167 174 193 211 198 204 213 226 205 196 244 300 306 312 277 235 265
162 168 173 161 155 160 164 166 170 174 174 173 167 166 168 175 185 183 172 175 178 182 187 173 175 187 179 185 204 214 214 209 213 222 215 211 215 202 270 301 296 272 245
146 165 171 164 155 158 158 162 170 170 174 170 167 167 174 175 180 180 175 180 185 183 184 185 192 209 199 195 205 208 217 223 226 220 215 214 213 217 214 231 247 262 269
145 154 162 156 149 152 156 163 171 170 168 163 165 166 171 174 178 181 181 187 187 189 189 196 206 214 213 200 201 204 215 221 224 225 222 221 216 215 221 229 223 240 270
149 155 159 150 152 155 161 166 166 163 162 163 169 168 169 174 179 181 186 187 189 202 194 203 218 220 217 204 206 209 211 212 220 224 223 224 201 202 221 237 224 234 246
148 145 160 156 160 164 172 165 163 160 158 165 170 167 169 174 177 184 189 192 198 208 204 211 218 223 220 179 184 211 219 208 215 222 227 217 200 198 208 217 227 220 229
154 143 157 154 155 159 163 160 158 155 159 166 171 165 173 181 179 189 187 193 198 209 219 222 217 217 209 182 179 192 215 226 221 224 230 245 210 192 202 211 228 233 231
154 146 151 151 158 153 148 148 154 160 162 170 172 166 172 177 178 184 184 189 190 207 226 233 226 215 205 189 186 190 214 238 238 228 224 223 219 216 216 233 228 224 226
143 146 143 143 150 153 151 145 150 165 169 174 175 171 170 169 178 181 179 183 191 215 228 229 223 213 198 195 191 191 220 229 235 235 224 214 204 186 210 240 253 250 241
87 105 122 127 127 139 147 149 157 166 180 178 178 175 165 172 185 171 174 183 203 222 230 226 223 216 200 193 193 195 228 236 234 229 216 207 196 190 202 221 244 252 253
110 115 122 130 136 142 146 161 170 175 186 181 180 168 163 177 180 162 181 200 217 227 236 234 223 214 197 186 193 195 219 243 251 239 216 196 189 197 208 218 232 240 265
123 136 137 130 142 150 154 161 173 178 176 172 173 166 169 198 183 168 197 212 216 224 233 236 231 211 187 182 193 198 212 236 257 258 246 176 181 197 209 219 228 231 248
140 137 144 134 140 151 155 166 170 175 160 159 172 173 181 197 185 183 203 213 216 221 221 220 225 217 193 182 185 200 217 228 241 266 266 198 196 201 215 229 228 220 227
128 141 156 154 153 165 166 163 168 170 165 164 174 190 199 205 197 196 202 211 216 220 225 220 224 216 192 182 179 194 210 221 231 244 236 217 212 223 236 225 216 217 224
144 151 162 166 172 171 171 171 175 177 178 173 183 208 225 218 206 208 211 219 218 216 222 233 240 220 193 191 184 187 195 199 193 202 213 216 207 214 216 215 214 215 218
162 164 167 181 182 176 175 174 185 185 186 191 200 216 225 216 215 212 215 199 194 180 177 168 173 123 141 153 155 163 167 169 164 188 231 231 227 227 223 216 214 215 216